User: anonymous   Login
Location: Nairn
(57.5833°N, 3.8667°W)
Time: 09:19:51
(UTC+00:00)
Language:

EO 1 Del DPAF - Orbit

View from above orbital plane
View from above orbital plane
View from above satellite
View from above satellite

Ground track
Ground track

The orbit data is extracted from the following two-line orbital elements,

1 26623U 00075E   20293.92395674 +.00003183 +00000-0 +16385-3 0  9993
2 26623 098.0021 193.6254 0002935 136.9502 223.1960 15.17227870080669
Epoch (UTC): 19 October 2020 22:10:29
Eccentricity: 0.0002935
inclination: 98.0021°
perigee height: 512 km
apogee height: 516 km
right ascension of ascending node: 193.6254°
argument of perigee: 136.9502°
revolutions per day: 15.17227870
mean anomaly at epoch: 223.1960°
orbit number at epoch: 8066

The dashed part of the orbit path shows where the satellite is in the earth's shadow,  

DLR